Fulton, NY

10:28 AM EST on February 07, 2016 (GMT -0500)
Oswego County

Weather History for KFZY - June, 2013

Change the Weather History Date:

Thursday, June 27, 2013

  Actual Average (KSYR) Record (KSYR)
Temperature  
Mean Temperature 71 °F 70 °F  
Max Temperature 81 °F 80 °F 95 °F (1941)
Min Temperature 62 °F 59 °F 47 °F (1982)
Degree Days  
Heating Degree Days 0 1  
Month to date heating degree days 58  
Since 1 June heating degree days 58  
Since 1 July heating degree days 6648  
Cooling Degree Days 6 5  
Month to date cooling degree days 95  
Year to date cooling degree days 125  
Since 1 June cooling degree days 95  
Growing Degree Days 21 (Base 50)    
Moisture  
Dew Point 65 °F    
Average Humidity 89    
Maximum Humidity 100    
Minimum Humidity 67    
Precipitation  
Precipitation 0.03 in 0.11 in 1.41 in (2006)
Month to date precipitation 2.97  
Year to date precipitation 16.90  
Snow  
Snow 0.00 in 0.00 in 0.00 in (2002)
Month to date snowfall 0.0  
Since 1 June snowfall 0.0  
Since 1 July snowfall 123.8  
Snow Depth -    
Sea Level Pressure  
Sea Level Pressure 29.76 in    
Wind  
Wind Speed 1 mph (SE)    
Max Wind Speed 8 mph    
Max Gust Speed 20 mph    
Visibility 5 miles    
Events Rain    
T = Trace of Precipitation, MM = Missing Value Source: NWS Daily Summary

Daily Weather History Graph

Daily Weather History Graph

Search for Another Location

Airport or City:

Trip Planner

Search our weather history database for the weather conditions in past years. The results will help you decide how hot, cold, wet, or windy it might be!

Date:

Astronomy

Jun. 27, 2013 Rise Set
Actual Time 5:27 AM EDT 8:50 PM EDT
Civil Twilight 4:51 AM EDT 9:25 PM EDT
Nautical Twilight 4:05 AM EDT 10:12 PM EDT
Astronomical Twilight 3:07 AM EDT 11:09 PM EDT
Moon 11:35 PM EDT (6/27) 10:34 AM EDT (6/27)
Length of Visible Light 16h 34m
Length of Day
15h 22m
Waning Gibbous, 76% of the Moon is Illuminated
Jun 27
Waning Gibbous
Jun 30
Last Quarter
Jul 8
New
Jul 15
First Quarter
Jul 22
Full

Hourly Weather History & Observations

Time (EDT) Temp. Heat Index Dew Point Humidity Pressure Visibility Wind Dir Wind Speed Gust Speed Precip Events Conditions
12:29 AM 66.2 °F - 64.4 °F 94% 29.81 in 1.8 mi Calm Calm - N/A   Clear
12:50 AM 66.2 °F - 64.4 °F 94% 29.81 in 4.0 mi Calm Calm - N/A   Clear
12:54 AM 66.9 °F - 64.9 °F 93% 29.81 in 7.0 mi Calm Calm - N/A   Clear
1:17 AM 66.2 °F - 64.4 °F 94% 29.81 in 2.5 mi Calm Calm - N/A   Partly Cloudy
1:25 AM 66.2 °F - 64.4 °F 94% 29.81 in 4.0 mi Calm Calm - N/A   Partly Cloudy
1:51 AM 66.2 °F - 64.4 °F 94% 29.80 in 2.5 mi Calm Calm - N/A   Clear
1:54 AM 66.0 °F - 64.0 °F 93% 29.79 in 2.0 mi Calm Calm - N/A   Clear
2:26 AM 64.4 °F - 62.6 °F 94% 29.80 in 1.0 mi Calm Calm - N/A   Clear
2:34 AM 64.4 °F - 62.6 °F 94% 29.80 in 0.8 mi Calm Calm - N/A   Clear
2:40 AM 64.4 °F - 62.6 °F 94% 29.80 in 1.2 mi Calm Calm - N/A   Clear
2:54 AM 63.0 °F - 62.1 °F 97% 29.79 in 1.5 mi Calm Calm - N/A   Clear
3:05 AM 64.4 °F - 62.6 °F 94% 29.79 in 3.0 mi SE 3.5 mph - N/A   Clear
3:15 AM 62.6 °F - 60.8 °F 94% 29.80 in 1.8 mi Calm Calm - N/A   Clear
3:21 AM 62.6 °F - 62.6 °F 100% 29.79 in 0.8 mi Calm Calm - N/A   Clear
3:26 AM 62.6 °F - 62.6 °F 100% 29.79 in 1.2 mi Calm Calm - N/A   Clear
3:36 AM 64.4 °F - 62.6 °F 94% 29.79 in 2.5 mi SE 3.5 mph - N/A   Clear
3:54 AM 63.0 °F - 61.0 °F 93% 29.78 in 1.5 mi Calm Calm - N/A   Clear
4:03 AM 62.6 °F - 60.8 °F 94% 29.78 in 0.8 mi Calm Calm - N/A   Clear
4:18 AM 62.6 °F - 60.8 °F 94% 29.79 in 1.2 mi SSE 3.5 mph - N/A   Clear
4:26 AM 64.4 °F - 62.6 °F 94% 29.79 in 3.0 mi Calm Calm - N/A   Clear
4:33 AM 62.6 °F - 62.6 °F 100% 29.79 in 1.8 mi Calm Calm - N/A   Clear
4:40 AM 62.6 °F - 62.6 °F 100% 29.79 in 0.8 mi Calm Calm - N/A   Clear
4:49 AM 62.6 °F - 62.6 °F 100% 29.79 in 1.2 mi Calm Calm - N/A   Clear
4:54 AM 62.1 °F - 61.0 °F 96% 29.78 in 2.0 mi Calm Calm - N/A   Clear
5:19 AM 64.4 °F - 62.6 °F 94% 29.79 in 5.0 mi Calm Calm - N/A   Clear
5:32 AM 64.4 °F - 62.6 °F 94% 29.79 in 1.8 mi Calm Calm - N/A   Clear
5:45 AM 64.4 °F - 62.6 °F 94% 29.79 in 3.0 mi SE 3.5 mph - N/A   Clear
5:54 AM 64.9 °F - 63.0 °F 93% 29.78 in 3.0 mi Calm Calm - N/A   Clear
6:04 AM 64.4 °F - 64.4 °F 100% 29.79 in 2.5 mi Calm Calm - N/A   Clear
6:32 AM 64.4 °F - 64.4 °F 100% 29.79 in 3.0 mi Calm Calm - N/A   Clear
6:54 AM 66.9 °F - 64.9 °F 93% 29.79 in 6.0 mi Calm Calm - N/A   Clear
7:54 AM 70.0 °F - 66.0 °F 87% 29.78 in 9.0 mi Calm Calm - N/A   Clear
8:54 AM 73.9 °F - 68.0 °F 82% 29.78 in 10.0 mi SSE 3.5 mph - N/A   Clear
9:54 AM 77.0 °F - 66.9 °F 71% 29.76 in 10.0 mi SSE 4.6 mph - N/A   Clear
10:54 AM 79.0 °F - 68.0 °F 69% 29.75 in 10.0 mi Calm Calm - N/A   Clear
11:54 AM 80.1 °F 82.7 °F 68.0 °F 67% 29.75 in 10.0 mi Variable 4.6 mph - N/A   Clear
12:54 PM 80.1 °F 82.7 °F 68.0 °F 67% 29.74 in 10.0 mi Calm Calm - N/A   Clear
1:54 PM 80.1 °F 82.7 °F 68.0 °F 67% 29.73 in 10.0 mi Calm Calm - N/A   Clear
2:54 PM 80.1 °F 82.7 °F 68.0 °F 67% 29.72 in 10.0 mi Calm Calm - N/A   Scattered Clouds
3:54 PM 80.1 °F 82.9 °F 69.1 °F 69% 29.70 in 10.0 mi Calm Calm - N/A   Clear
4:54 PM 77.0 °F - 69.1 °F 76% 29.69 in 10.0 mi NNE 6.9 mph - N/A   Overcast
5:54 PM 75.9 °F - 69.1 °F 79% 29.68 in 10.0 mi Calm Calm - 0.00 in   Overcast
6:54 PM 75.0 °F - 70.0 °F 84% 29.66 in 10.0 mi ENE 3.5 mph - 0.00 in   Overcast
7:54 PM 75.0 °F - 70.0 °F 84% 29.65 in 10.0 mi Calm Calm - 0.00 in   Scattered Clouds
8:54 PM 72.0 °F - 66.9 °F 84% 29.66 in 10.0 mi SE 8.1 mph 19.6 mph 0.00 in   Overcast
9:54 PM 68.0 °F - 64.9 °F 90% 29.66 in 10.0 mi Calm Calm - 0.01 in Rain Light Rain
10:54 PM 68.0 °F - 64.0 °F 87% 29.64 in 10.0 mi Variable 4.6 mph - 0.01 in Rain Light Rain
11:54 PM 66.9 °F - 64.0 °F 90% 29.61 in 10.0 mi Calm Calm - 0.01 in Rain Light Rain